Location: Newark
(50.8086°N, 4.3114°E)
Time: 10:34:52
(UTC+00:00)

XW-2D - Pass Details

Date: 28 January 2020
Orbit: 507 x 528 km, 97.5° (Epoch: 25 February)

Event Time Altitude Azimuth Distance (km) Brightness Sun altitude
Rises 05:04:04 0° 22° (NNE) 2,631 ? -22.2°
Reaches altitude 10° 05:06:24 10° 35° (NE) 1,738 ? -21.8°
Maximum altitude 05:09:38 27° 95° (E) 1,007 ? -21.3°
Drops below altitude 10° 05:12:49 10° 154° (SSE) 1,721 ? -20.8°
Sets 05:15:07 0° 167° (SSE) 2,600 ? -20.4°
